Time,TemperatureF,DewpointF,PressureIn,WindDirection,WindDirectionDegrees,WindSpeedMPH,WindSpeedGustMPH,Humidity,HourlyPrecipIn,Conditions,Clouds,dailyrainin,SolarRadiationWatts/m^2,SoftwareType,DateUTC
2013-04-02 00:00:00,24.8,10.5,30.18,West,268,0.0,-999.0,54,0.00,,,0.00,0,WeatherHawk,2013-04-02 05:00:00,
2013-04-02 00:05:00,25.2,11.3,30.17,WSW,247,1.0,0.0,55,0.00,,,0.00,1,WeatherHawk,2013-04-02 05:05:00,
2013-04-02 00:10:00,24.9,11.1,30.18,West,261,0.0,-999.0,55,0.00,,,0.00,1,WeatherHawk,2013-04-02 05:10:00,
2013-04-02 00:15:00,25.8,12.3,30.18,West,281,4.0,-999.0,56,0.00,,,0.00,0,WeatherHawk,2013-04-02 05:15:00,
2013-04-02 00:20:00,25.3,11.8,30.17,West,278,2.0,0.0,56,0.00,,,0.00,0,WeatherHawk,2013-04-02 05:20:00,
2013-04-02 00:25:00,25.7,11.8,30.18,West,274,3.0,0.0,55,0.00,,,0.00,0,WeatherHawk,2013-04-02 05:25:00,
2013-04-02 00:30:00,25.3,11.1,30.18,West,260,1.0,0.0,54,0.00,,,0.00,0,WeatherHawk,2013-04-02 05:30:00,
2013-04-02 00:35:00,25.5,11.2,30.18,West,266,2.0,0.0,54,0.00,,,0.00,0,WeatherHawk,2013-04-02 05:35:00,
2013-04-02 00:40:00,24.9,10.6,30.18,WSW,258,0.0,0.0,54,0.00,,,0.00,0,WeatherHawk,2013-04-02 05:40:00,
2013-04-02 00:45:00,25.5,11.2,30.18,West,262,2.0,0.0,54,0.00,,,0.00,0,WeatherHawk,2013-04-02 05:45:00,
2013-04-02 00:50:00,25.9,11.1,30.18,SW,235,4.0,0.0,53,0.00,,,0.00,1,WeatherHawk,2013-04-02 05:50:00,
2013-04-02 00:55:00,25.3,10.6,30.18,West,261,1.0,0.0,53,0.00,,,0.00,0,WeatherHawk,2013-04-02 05:55:00,
2013-04-02 01:00:00,25.7,10.9,30.18,West,269,3.0,0.0,53,0.00,,,0.00,0,WeatherHawk,2013-04-02 06:00:00,
2013-04-02 01:05:00,25.0,10.7,30.18,West,260,1.0,0.0,54,0.00,,,0.00,0,WeatherHawk,2013-04-02 06:05:00,
2013-04-02 01:10:00,24.1,10.3,30.18,SW,229,2.0,0.0,55,0.00,,,0.00,0,WeatherHawk,2013-04-02 06:10:00,
2013-04-02 01:16:00,24.0,11.0,30.18,SW,222,0.0,0.0,57,0.00,,,0.00,1,WeatherHawk,2013-04-02 06:16:00,
2013-04-02 01:22:00,24.7,12.5,30.19,WSW,244,3.0,0.0,59,0.00,,,0.00,0,WeatherHawk,2013-04-02 06:22:00,
2013-04-02 01:27:00,23.4,11.6,30.18,WSW,250,0.0,0.0,60,0.00,,,0.00,0,WeatherHawk,2013-04-02 06:27:00,
2013-04-02 01:33:00,23.5,12.4,30.18,SSW,213,0.0,0.0,62,0.00,,,0.00,0,WeatherHawk,2013-04-02 06:33:00,
2013-04-02 01:38:00,22.9,12.5,30.19,SW,214,0.0,0.0,64,0.00,,,0.00,0,WeatherHawk,2013-04-02 06:38:00,
2013-04-02 01:43:00,22.7,12.4,30.18,SW,214,0.0,0.0,64,0.00,,,0.00,0,WeatherHawk,2013-04-02 06:43:00,
2013-04-02 01:48:00,23.2,13.9,30.19,West,263,0.0,0.0,67,0.00,,,0.00,0,WeatherHawk,2013-04-02 06:48:00,
2013-04-02 01:53:00,23.0,13.4,30.18,SW,220,0.0,0.0,66,0.00,,,0.00,0,WeatherHawk,2013-04-02 06:53:00,
2013-04-02 01:58:00,23.9,14.9,30.18,SW,228,2.0,0.0,68,0.00,,,0.00,1,WeatherHawk,2013-04-02 06:58:00,
2013-04-02 02:03:00,23.0,13.4,30.18,SW,228,1.0,0.0,66,0.00,,,0.00,0,WeatherHawk,2013-04-02 07:03:00,
2013-04-02 02:08:00,23.1,13.8,30.18,SW,229,1.0,0.0,67,0.00,,,0.00,0,WeatherHawk,2013-04-02 07:08:00,
2013-04-02 02:13:00,24.3,14.6,30.19,West,270,1.0,0.0,66,0.00,,,0.00,0,WeatherHawk,2013-04-02 07:13:00,
2013-04-02 02:19:00,24.1,14.0,30.19,West,263,0.0,0.0,65,0.00,,,0.00,0,WeatherHawk,2013-04-02 07:19:00,
2013-04-02 02:24:00,24.2,13.4,30.18,West,261,1.0,0.0,63,0.00,,,0.00,0,WeatherHawk,2013-04-02 07:24:00,
2013-04-02 02:29:00,24.6,13.8,30.18,WSW,256,2.0,0.0,63,0.00,,,0.00,0,WeatherHawk,2013-04-02 07:29:00,
2013-04-02 02:34:00,24.2,12.8,30.18,West,265,0.0,0.0,61,0.00,,,0.00,0,WeatherHawk,2013-04-02 07:34:00,
2013-04-02 02:39:00,24.0,12.5,30.18,WSW,247,0.0,0.0,61,0.00,,,0.00,0,WeatherHawk,2013-04-02 07:39:00,
2013-04-02 02:44:00,24.5,13.0,30.18,West,259,2.0,0.0,61,0.00,,,0.00,0,WeatherHawk,2013-04-02 07:44:00,
2013-04-02 02:49:00,23.9,12.4,30.18,West,259,1.0,0.0,61,0.00,,,0.00,0,WeatherHawk,2013-04-02 07:49:00,
2013-04-02 02:55:00,24.6,12.7,30.18,SW,225,4.0,0.0,60,0.00,,,0.00,0,WeatherHawk,2013-04-02 07:55:00,
2013-04-02 03:00:00,23.7,11.5,30.18,WSW,252,0.0,0.0,59,0.00,,,0.00,1,WeatherHawk,2013-04-02 08:00:00,
2013-04-02 03:05:00,23.6,11.8,30.18,WNW,285,0.0,0.0,60,0.00,,,0.00,0,WeatherHawk,2013-04-02 08:05:00,
2013-04-02 03:10:00,23.0,11.5,30.18,SW,220,0.0,0.0,61,0.00,,,0.00,1,WeatherHawk,2013-04-02 08:10:00,
2013-04-02 03:15:00,22.6,11.9,30.18,SW,232,0.0,0.0,63,0.00,,,0.00,0,WeatherHawk,2013-04-02 08:15:00,
2013-04-02 03:20:00,22.9,13.0,30.18,SW,232,1.0,0.0,65,0.00,,,0.00,1,WeatherHawk,2013-04-02 08:20:00,
2013-04-02 03:25:00,23.2,13.9,30.18,SW,232,2.0,0.0,67,0.00,,,0.00,0,WeatherHawk,2013-04-02 08:25:00,
2013-04-02 03:30:00,23.1,13.4,30.18,WSW,248,2.0,0.0,66,0.00,,,0.00,0,WeatherHawk,2013-04-02 08:30:00,
2013-04-02 03:35:00,22.9,13.9,30.18,WSW,242,0.0,0.0,68,0.00,,,0.00,1,WeatherHawk,2013-04-02 08:35:00,
2013-04-02 03:40:00,23.3,14.7,30.18,WNW,282,1.0,0.0,69,0.00,,,0.00,0,WeatherHawk,2013-04-02 08:40:00,
2013-04-02 03:45:00,23.1,14.5,30.18,West,271,2.0,0.0,69,0.00,,,0.00,0,WeatherHawk,2013-04-02 08:45:00,
2013-04-02 03:50:00,23.3,14.7,30.18,West,273,1.0,0.0,69,0.00,,,0.00,0,WeatherHawk,2013-04-02 08:50:00,
2013-04-02 03:55:00,23.6,14.3,30.18,WSW,257,2.0,0.0,67,0.00,,,0.00,0,WeatherHawk,2013-04-02 08:55:00,
2013-04-02 04:00:00,23.0,13.4,30.18,NW,312,1.0,0.0,66,0.00,,,0.00,0,WeatherHawk,2013-04-02 09:00:00,
2013-04-02 04:05:00,23.2,13.2,30.18,WNW,288,1.0,0.0,65,0.00,,,0.00,0,WeatherHawk,2013-04-02 09:05:00,
2013-04-02 04:10:00,23.2,12.9,30.18,NW,313,0.0,0.0,64,0.00,,,0.00,0,WeatherHawk,2013-04-02 09:10:00,
2013-04-02 04:15:00,23.6,13.2,30.18,WNW,296,3.0,0.0,64,0.00,,,0.00,0,WeatherHawk,2013-04-02 09:15:00,
2013-04-02 04:20:00,23.2,12.5,30.18,NW,318,1.0,0.0,63,0.00,,,0.00,0,WeatherHawk,2013-04-02 09:20:00,
2013-04-02 04:25:00,23.8,13.0,30.18,West,262,4.0,0.0,63,0.00,,,0.00,0,WeatherHawk,2013-04-02 09:25:00,
2013-04-02 04:30:00,23.3,12.6,30.18,WNW,295,2.0,0.0,63,0.00,,,0.00,0,WeatherHawk,2013-04-02 09:30:00,
2013-04-02 04:35:00,23.4,12.7,30.18,WNW,298,1.0,0.0,63,0.00,,,0.00,0,WeatherHawk,2013-04-02 09:35:00,
2013-04-02 04:40:00,23.1,12.4,30.18,WNW,301,0.0,0.0,63,0.00,,,0.00,1,WeatherHawk,2013-04-02 09:40:00,
2013-04-02 04:45:00,22.9,12.2,30.18,West,263,0.0,0.0,63,0.00,,,0.00,0,WeatherHawk,2013-04-02 09:45:00,
2013-04-02 04:50:00,23.0,12.3,30.19,WNW,284,2.0,0.0,63,0.00,,,0.00,1,WeatherHawk,2013-04-02 09:50:00,
2013-04-02 04:55:00,22.9,12.2,30.19,WSW,245,1.0,0.0,63,0.00,,,0.00,1,WeatherHawk,2013-04-02 09:55:00,
2013-04-02 05:00:00,23.3,12.3,30.19,NNW,331,2.0,0.0,62,0.00,,,0.00,0,WeatherHawk,2013-04-02 10:00:00,
2013-04-02 05:05:00,23.8,13.1,30.19,NW,324,4.0,0.0,63,0.00,,,0.00,0,WeatherHawk,2013-04-02 10:05:00,
2013-04-02 05:10:00,23.8,13.1,30.19,NNW,336,3.0,0.0,63,0.00,,,0.00,0,WeatherHawk,2013-04-02 10:10:00,
2013-04-02 05:15:00,23.2,12.5,30.19,NW,319,1.0,0.0,63,0.00,,,0.00,0,WeatherHawk,2013-04-02 10:15:00,
2013-04-02 05:20:00,23.3,13.0,30.19,West,276,3.0,0.0,64,0.00,,,0.00,0,WeatherHawk,2013-04-02 10:20:00,
2013-04-02 05:25:00,22.6,12.3,30.19,WNW,296,1.0,0.0,64,0.00,,,0.00,0,WeatherHawk,2013-04-02 10:25:00,
2013-04-02 05:30:00,22.4,12.1,30.19,NNW,337,0.0,0.0,64,0.00,,,0.00,0,WeatherHawk,2013-04-02 10:30:00,
2013-04-02 05:35:00,22.4,12.4,30.19,West,274,2.0,0.0,65,0.00,,,0.00,0,WeatherHawk,2013-04-02 10:35:00,
2013-04-02 05:40:00,22.4,12.8,30.20,West,275,0.0,0.0,66,0.00,,,0.00,0,WeatherHawk,2013-04-02 10:40:00,
2013-04-02 05:45:00,22.9,13.6,30.20,WSW,258,3.0,0.0,67,0.00,,,0.00,1,WeatherHawk,2013-04-02 10:45:00,
2013-04-02 05:50:00,23.2,13.2,30.20,West,262,2.0,0.0,65,0.00,,,0.00,0,WeatherHawk,2013-04-02 10:50:00,
2013-04-02 05:55:00,22.9,13.3,30.20,WNW,284,2.0,0.0,66,0.00,,,0.00,0,WeatherHawk,2013-04-02 10:55:00,
2013-04-02 06:00:00,22.7,13.1,30.20,SW,232,3.0,0.0,66,0.00,,,0.00,0,WeatherHawk,2013-04-02 11:00:00,
2013-04-02 06:05:00,22.8,13.2,30.20,WSW,245,3.0,0.0,66,0.00,,,0.00,1,WeatherHawk,2013-04-02 11:05:00,
2013-04-02 06:10:00,22.8,13.2,30.20,WSW,258,1.0,0.0,66,0.00,,,0.00,0,WeatherHawk,2013-04-02 11:10:00,
2013-04-02 06:15:00,22.8,13.2,30.20,West,265,2.0,0.0,66,0.00,,,0.00,1,WeatherHawk,2013-04-02 11:15:00,
2013-04-02 06:20:00,23.0,13.7,30.21,West,266,3.0,0.0,67,0.00,,,0.00,0,WeatherHawk,2013-04-02 11:20:00,
2013-04-02 06:25:00,22.3,12.7,30.21,WNW,299,1.0,0.0,66,0.00,,,0.00,1,WeatherHawk,2013-04-02 11:25:00,
2013-04-02 06:30:00,22.9,13.3,30.21,WNW,288,2.0,0.0,66,0.00,,,0.00,3,WeatherHawk,2013-04-02 11:30:00,
2013-04-02 06:35:00,22.3,12.7,30.21,WNW,296,0.0,0.0,66,0.00,,,0.00,3,WeatherHawk,2013-04-02 11:35:00,
2013-04-02 06:40:00,22.5,12.9,30.21,West,273,0.0,0.0,66,0.00,,,0.00,5,WeatherHawk,2013-04-02 11:40:00,
2013-04-02 06:45:00,22.6,13.0,30.22,WSW,255,2.0,0.0,66,0.00,,,0.00,9,WeatherHawk,2013-04-02 11:45:00,
2013-04-02 06:50:00,23.3,13.6,30.22,NNW,335,2.0,0.0,66,0.00,,,0.00,10,WeatherHawk,2013-04-02 11:50:00,
2013-04-02 06:55:00,23.0,13.0,30.22,NW,312,3.0,0.0,65,0.00,,,0.00,13,WeatherHawk,2013-04-02 11:55:00,
2013-04-02 07:00:00,22.9,12.9,30.22,WNW,283,0.0,0.0,65,0.00,,,0.00,19,WeatherHawk,2013-04-02 12:00:00,
2013-04-02 07:05:00,23.9,13.5,30.22,WNW,303,2.0,0.0,64,0.00,,,0.00,29,WeatherHawk,2013-04-02 12:05:00,
2013-04-02 07:10:00,24.4,12.9,30.22,WNW,303,3.0,0.0,61,0.00,,,0.00,40,WeatherHawk,2013-04-02 12:10:00,
2013-04-02 07:15:00,24.7,12.8,30.23,WNW,301,1.0,0.0,60,0.00,,,0.00,49,WeatherHawk,2013-04-02 12:15:00,
2013-04-02 07:20:00,25.1,12.0,30.22,West,281,4.0,0.0,57,0.00,,,0.00,60,WeatherHawk,2013-04-02 12:20:00,
2013-04-02 07:25:00,25.7,12.2,30.23,WSW,246,2.0,0.0,56,0.00,,,0.00,73,WeatherHawk,2013-04-02 12:25:00,
2013-04-02 07:30:00,26.2,12.3,30.23,WNW,302,3.0,0.0,55,0.00,,,0.00,84,WeatherHawk,2013-04-02 12:30:00,
2013-04-02 07:35:00,26.3,11.5,30.22,West,272,5.0,0.0,53,0.00,,,0.00,98,WeatherHawk,2013-04-02 12:35:00,
2013-04-02 07:40:00,26.3,10.6,30.23,NNW,346,5.0,0.0,51,0.00,,,0.00,111,WeatherHawk,2013-04-02 12:40:00,
2013-04-02 07:45:00,27.2,11.5,30.23,NW,312,4.0,0.0,51,0.00,,,0.00,127,WeatherHawk,2013-04-02 12:45:00,
2013-04-02 07:50:00,27.0,10.4,30.24,NNW,341,4.0,0.0,49,0.00,,,0.00,142,WeatherHawk,2013-04-02 12:50:00,
2013-04-02 07:55:00,28.0,11.3,30.24,WNW,298,3.0,0.0,49,0.00,,,0.00,157,WeatherHawk,2013-04-02 12:55:00,
2013-04-02 08:00:00,27.5,9.5,30.25,NW,316,7.0,0.0,46,0.00,,,0.00,173,WeatherHawk,2013-04-02 13:00:00,
2013-04-02 08:05:00,29.7,11.9,30.24,West,264,2.0,0.0,47,0.00,,,0.00,187,WeatherHawk,2013-04-02 13:05:00,
2013-04-02 08:10:00,28.6,10.0,30.25,WNW,300,5.0,0.0,45,0.00,,,0.00,205,WeatherHawk,2013-04-02 13:10:00,
2013-04-02 08:15:00,29.0,9.8,30.24,NNW,338,5.0,0.0,44,0.00,,,0.00,221,WeatherHawk,2013-04-02 13:15:00,
2013-04-02 08:20:00,27.8,8.3,30.24,NW,325,6.0,0.0,43,0.00,,,0.00,237,WeatherHawk,2013-04-02 13:20:00,
2013-04-02 08:25:00,28.0,9.0,30.24,NNW,333,7.0,0.0,44,0.00,,,0.00,256,WeatherHawk,2013-04-02 13:25:00,
2013-04-02 08:30:00,30.8,11.5,30.24,NW,321,4.0,0.0,44,0.00,,,0.00,271,WeatherHawk,2013-04-02 13:30:00,
2013-04-02 08:35:00,29.2,8.4,30.25,WNW,286,4.0,0.0,41,0.00,,,0.00,287,WeatherHawk,2013-04-02 13:35:00,
2013-04-02 08:40:00,29.5,8.2,30.25,WNW,293,6.0,0.0,40,0.00,,,0.00,303,WeatherHawk,2013-04-02 13:40:00,
2013-04-02 08:45:00,27.8,6.1,30.24,NW,322,11.0,0.0,39,0.00,,,0.00,321,WeatherHawk,2013-04-02 13:45:00,
2013-04-02 08:50:00,28.9,7.1,30.25,WNW,302,6.0,0.0,39,0.00,,,0.00,336,WeatherHawk,2013-04-02 13:50:00,
2013-04-02 08:55:00,30.1,8.7,30.25,West,270,4.0,0.0,40,0.00,,,0.00,352,WeatherHawk,2013-04-02 13:55:00,
2013-04-02 09:00:00,29.8,6.8,30.25,North,3,5.0,0.0,37,0.00,,,0.00,367,WeatherHawk,2013-04-02 14:00:00,
2013-04-02 09:05:00,30.3,8.4,30.24,West,265,5.0,0.0,39,0.00,,,0.00,382,WeatherHawk,2013-04-02 14:05:00,
2013-04-02 09:10:00,29.6,6.6,30.25,WNW,293,4.0,0.0,37,0.00,,,0.00,396,WeatherHawk,2013-04-02 14:10:00,
2013-04-02 09:15:00,29.8,6.2,30.24,WNW,282,7.0,0.0,36,0.00,,,0.00,414,WeatherHawk,2013-04-02 14:15:00,
2013-04-02 09:20:00,30.1,6.4,30.25,NW,324,7.0,0.0,36,0.00,,,0.00,430,WeatherHawk,2013-04-02 14:20:00,
2013-04-02 09:25:00,30.3,5.9,30.24,West,267,5.0,0.0,35,0.00,,,0.00,445,WeatherHawk,2013-04-02 14:25:00,
2013-04-02 09:30:00,29.7,4.8,30.25,NNW,336,7.0,0.0,34,0.00,,,0.00,461,WeatherHawk,2013-04-02 14:30:00,
2013-04-02 09:35:00,30.5,5.5,30.25,West,263,6.0,0.0,34,0.00,,,0.00,474,WeatherHawk,2013-04-02 14:35:00,
2013-04-02 09:40:00,32.1,6.9,30.24,WNW,286,4.0,0.0,34,0.00,,,0.00,490,WeatherHawk,2013-04-02 14:40:00,
2013-04-02 09:45:00,32.5,6.0,30.24,NNW,347,0.0,0.0,32,0.00,,,0.00,500,WeatherHawk,2013-04-02 14:45:00,
2013-04-02 09:52:00,36.0,9.7,30.25,West,276,2.0,0.0,33,0.00,,,0.00,526,WeatherHawk,2013-04-02 14:52:00,
2013-04-02 09:57:00,32.6,4.6,30.24,NNE,24,5.0,0.0,30,0.00,,,0.00,533,WeatherHawk,2013-04-02 14:57:00,
2013-04-02 10:02:00,31.4,3.6,30.24,NNW,335,5.0,0.0,30,0.00,,,0.00,553,WeatherHawk,2013-04-02 15:02:00,
2013-04-02 10:07:00,33.8,7.1,30.24,WSW,252,4.0,0.0,32,0.00,,,0.00,568,WeatherHawk,2013-04-02 15:07:00,
2013-04-02 10:13:00,32.9,4.9,30.25,NW,307,5.0,0.0,30,0.00,,,0.00,581,WeatherHawk,2013-04-02 15:13:00,
2013-04-02 10:18:00,31.3,2.0,30.24,NNW,327,9.0,0.0,28,0.00,,,0.00,592,WeatherHawk,2013-04-02 15:18:00,
2013-04-02 10:24:00,31.7,2.4,30.25,NNW,336,7.0,0.0,28,0.00,,,0.00,606,WeatherHawk,2013-04-02 15:24:00,
2013-04-02 10:29:00,31.9,0.9,30.24,West,280,3.0,0.0,26,0.00,,,0.00,621,WeatherHawk,2013-04-02 15:29:00,
2013-04-02 10:35:00,33.6,4.0,30.24,WNW,291,4.0,0.0,28,0.00,,,0.00,633,WeatherHawk,2013-04-02 15:35:00,
2013-04-02 10:40:00,35.4,7.1,30.24,NW,323,4.0,0.0,30,0.00,,,0.00,645,WeatherHawk,2013-04-02 15:40:00,
2013-04-02 10:45:00,32.6,0.8,30.24,West,264,7.0,0.0,25,0.00,,,0.00,652,WeatherHawk,2013-04-02 15:45:00,
2013-04-02 10:50:00,35.6,7.3,30.25,SSE,154,2.0,0.0,30,0.00,,,0.00,664,WeatherHawk,2013-04-02 15:50:00,
2013-04-02 10:58:00,35.4,4.7,30.24,West,262,1.0,0.0,27,0.00,,,0.00,676,WeatherHawk,2013-04-02 15:58:00,
2013-04-02 11:10:00,32.6,-7.3,30.24,WNW,284,7.0,0.0,17,0.00,,,0.00,701,WeatherHawk,2013-04-02 16:10:00,
2013-04-02 11:15:00,33.6,-2.2,30.25,West,276,5.0,0.0,21,0.00,,,0.00,706,WeatherHawk,2013-04-02 16:15:00,
2013-04-02 11:25:00,34.5,-1.3,30.24,West,265,5.0,0.0,21,0.00,,,0.00,723,WeatherHawk,2013-04-02 16:25:00,
2013-04-02 11:30:00,34.2,-4.8,30.25,WNW,293,5.0,0.0,18,0.00,,,0.00,730,WeatherHawk,2013-04-02 16:30:00,
2013-04-02 11:35:00,34.5,-2.4,30.24,SW,224,7.0,0.0,20,0.00,,,0.00,741,WeatherHawk,2013-04-02 16:35:00,
2013-04-02 11:40:00,37.6,1.2,30.24,WSW,257,2.0,0.0,21,0.00,,,0.00,745,WeatherHawk,2013-04-02 16:40:00,
2013-04-02 11:45:00,33.3,-10.7,30.24,NNW,347,9.0,0.0,14,0.00,,,0.00,752,WeatherHawk,2013-04-02 16:45:00,
2013-04-02 11:51:00,35.8,1.6,30.24,WNW,288,5.0,0.0,23,0.00,,,0.00,750,WeatherHawk,2013-04-02 16:51:00,
2013-04-02 11:57:00,35.4,-3.8,30.24,West,280,3.0,0.0,18,0.00,,,0.00,758,WeatherHawk,2013-04-02 16:57:00,
2013-04-02 12:02:00,35.2,-9.2,30.23,NNW,346,7.0,0.0,14,0.00,,,0.00,766,WeatherHawk,2013-04-02 17:02:00,
2013-04-02 12:07:00,36.4,-3.0,30.24,West,280,5.0,0.0,18,0.00,,,0.00,770,WeatherHawk,2013-04-02 17:07:00,
2013-04-02 12:13:00,37.0,-0.3,30.23,WSW,253,3.0,0.0,20,0.00,,,0.00,774,WeatherHawk,2013-04-02 17:13:00,
2013-04-02 12:18:00,34.8,-5.5,30.24,NW,308,9.0,0.0,17,0.00,,,0.00,778,WeatherHawk,2013-04-02 17:18:00,
2013-04-02 12:24:00,35.0,-6.6,30.23,WNW,287,7.0,0.0,16,0.00,,,0.00,779,WeatherHawk,2013-04-02 17:24:00,
2013-04-02 12:29:00,34.4,-12.9,30.24,WSW,242,11.0,0.0,12,0.00,,,0.00,785,WeatherHawk,2013-04-02 17:29:00,
2013-04-02 12:35:00,36.4,-9.7,30.23,NNW,328,6.0,0.0,13,0.00,,,0.00,787,WeatherHawk,2013-04-02 17:35:00,
2013-04-02 12:40:00,36.5,-5.4,30.22,WSW,250,8.0,0.0,16,0.00,,,0.00,786,WeatherHawk,2013-04-02 17:40:00,
2013-04-02 12:45:00,35.9,-4.6,30.23,WSW,247,6.0,0.0,17,0.00,,,0.00,789,WeatherHawk,2013-04-02 17:45:00,
2013-04-02 12:50:00,36.5,-8.1,30.22,WNW,287,9.0,-999.0,14,0.00,,,0.00,791,WeatherHawk,2013-04-02 17:50:00,
2013-04-02 12:55:00,36.7,-6.5,30.22,WNW,291,6.0,-999.0,15,0.00,,,0.00,789,WeatherHawk,2013-04-02 17:55:00,
2013-04-02 13:00:00,37.2,-9.1,30.23,WNW,286,6.0,0.0,13,0.00,,,0.00,789,WeatherHawk,2013-04-02 18:00:00,
2013-04-02 13:05:00,36.7,-12.8,30.23,West,276,8.0,0.0,11,0.00,,,0.00,788,WeatherHawk,2013-04-02 18:05:00,
2013-04-02 13:11:00,38.1,-4.1,30.22,WSW,252,5.0,0.0,16,0.00,,,0.00,795,WeatherHawk,2013-04-02 18:11:00,
2013-04-02 13:17:00,37.7,-8.6,30.22,West,262,9.0,0.0,13,0.00,,,0.00,788,WeatherHawk,2013-04-02 18:17:00,
2013-04-02 13:24:00,39.3,-5.9,30.22,NW,324,6.0,0.0,14,0.00,,,0.00,796,WeatherHawk,2013-04-02 18:24:00,
2013-04-02 13:29:00,38.8,-6.3,30.22,WSW,247,4.0,0.0,14,0.00,,,0.00,799,WeatherHawk,2013-04-02 18:29:00,
2013-04-02 13:35:00,37.3,-12.3,30.22,WNW,284,5.0,0.0,11,0.00,,,0.00,804,WeatherHawk,2013-04-02 18:35:00,
2013-04-02 13:40:00,37.6,-12.1,30.22,SW,222,7.0,0.0,11,0.00,,,0.00,789,WeatherHawk,2013-04-02 18:40:00,
2013-04-02 13:45:00,38.0,-6.9,30.22,NW,324,6.0,0.0,14,0.00,,,0.00,786,WeatherHawk,2013-04-02 18:45:00,
2013-04-02 13:50:00,37.2,-10.6,30.22,West,265,7.0,0.0,12,0.00,,,0.00,797,WeatherHawk,2013-04-02 18:50:00,
2013-04-02 13:57:00,38.5,-5.1,30.22,NNW,337,7.0,0.0,15,0.00,,,0.00,826,WeatherHawk,2013-04-02 18:57:00,
2013-04-02 14:02:00,37.9,-10.1,30.22,WNW,282,7.0,0.0,12,0.00,,,0.00,792,WeatherHawk,2013-04-02 19:02:00,
2013-04-02 14:07:00,35.6,-8.8,30.22,NW,315,10.0,0.0,14,0.00,,,0.00,226,WeatherHawk,2013-04-02 19:07:00,
2013-04-02 14:13:00,36.5,-4.2,30.21,WNW,285,10.0,0.0,17,0.00,,,0.00,248,WeatherHawk,2013-04-02 19:13:00,
2013-04-02 14:19:00,36.5,-8.1,30.21,WNW,300,11.0,0.0,14,0.00,,,0.00,708,WeatherHawk,2013-04-02 19:19:00,
2013-04-02 14:24:00,38.6,-2.4,30.22,WSW,245,6.0,0.0,17,0.00,,,0.00,782,WeatherHawk,2013-04-02 19:24:00,
2013-04-02 14:30:00,37.6,-5.8,30.22,West,264,7.0,0.0,15,0.00,,,0.00,778,WeatherHawk,2013-04-02 19:30:00,
2013-04-02 14:35:00,35.8,-10.2,30.22,WNW,287,7.0,0.0,13,0.00,,,0.00,773,WeatherHawk,2013-04-02 19:35:00,
2013-04-02 14:41:00,36.6,-6.6,30.21,NNW,332,9.0,0.0,15,0.00,,,0.00,733,WeatherHawk,2013-04-02 19:41:00,
2013-04-02 14:46:00,37.1,-10.8,30.21,NNW,348,10.0,0.0,12,0.00,,,0.00,723,WeatherHawk,2013-04-02 19:46:00,
2013-04-02 14:53:00,38.0,-6.9,30.22,WSW,246,5.0,0.0,14,0.00,,,0.00,716,WeatherHawk,2013-04-02 19:53:00,
2013-04-02 14:59:00,37.5,-7.3,30.22,WSW,256,6.0,0.0,14,0.00,,,0.00,710,WeatherHawk,2013-04-02 19:59:00,
2013-04-02 15:05:00,38.2,-4.0,30.21,NW,310,4.0,0.0,16,0.00,,,0.00,693,WeatherHawk,2013-04-02 20:05:00,
2013-04-02 15:10:00,39.1,-9.2,30.21,West,281,2.0,0.0,12,0.00,,,0.00,694,WeatherHawk,2013-04-02 20:10:00,
2013-04-02 15:18:00,38.5,-5.1,30.21,West,261,5.0,0.0,15,0.00,,,0.00,670,WeatherHawk,2013-04-02 20:18:00,
2013-04-02 15:24:00,38.8,-6.2,30.21,West,271,5.0,0.0,14,0.00,,,0.00,648,WeatherHawk,2013-04-02 20:24:00,
2013-04-02 15:29:00,37.8,-7.1,30.21,WNW,297,5.0,0.0,14,0.00,,,0.00,645,WeatherHawk,2013-04-02 20:29:00,
2013-04-02 15:35:00,38.5,-3.7,30.20,NNW,347,5.0,0.0,16,0.00,,,0.00,609,WeatherHawk,2013-04-02 20:35:00,
2013-04-02 15:40:00,37.1,-10.7,30.20,WNW,302,10.0,0.0,12,0.00,,,0.00,586,WeatherHawk,2013-04-02 20:40:00,
2013-04-02 15:46:00,39.8,-4.0,30.21,West,281,5.0,0.0,15,0.00,,,0.00,585,WeatherHawk,2013-04-02 20:46:00,
2013-04-02 15:52:00,40.4,-5.0,30.20,NNW,338,4.0,0.0,14,0.00,,,0.00,572,WeatherHawk,2013-04-02 20:52:00,
2013-04-02 15:58:00,37.1,-12.5,30.21,NNW,330,8.0,0.0,11,0.00,,,0.00,561,WeatherHawk,2013-04-02 20:58:00,
2013-04-02 16:03:00,37.6,-4.5,30.21,NNW,330,9.0,0.0,16,0.00,,,0.00,547,WeatherHawk,2013-04-02 21:03:00,
2013-04-02 16:08:00,39.7,-4.1,30.21,NW,313,2.0,0.0,15,0.00,,,0.00,530,WeatherHawk,2013-04-02 21:08:00,
2013-04-02 16:14:00,35.8,-8.6,30.21,NNW,340,8.0,0.0,14,0.00,,,0.00,418,WeatherHawk,2013-04-02 21:14:00,
2013-04-02 16:19:00,37.1,-7.6,30.21,NNW,335,8.0,0.0,14,0.00,,,0.00,502,WeatherHawk,2013-04-02 21:19:00,
2013-04-02 16:25:00,38.0,-4.1,30.21,NW,312,5.0,0.0,16,0.00,,,0.00,489,WeatherHawk,2013-04-02 21:25:00,
2013-04-02 16:30:00,37.3,-2.3,30.21,NNW,339,9.0,0.0,18,0.00,,,0.00,469,WeatherHawk,2013-04-02 21:30:00,
2013-04-02 16:35:00,36.5,-6.7,30.21,NNW,335,8.0,0.0,15,0.00,,,0.00,455,WeatherHawk,2013-04-02 21:35:00,
2013-04-02 16:40:00,35.9,-4.6,30.21,NW,315,12.0,0.0,17,0.00,,,0.00,438,WeatherHawk,2013-04-02 21:40:00,
2013-04-02 16:45:00,39.1,1.5,30.21,West,269,4.0,0.0,20,0.00,,,0.00,425,WeatherHawk,2013-04-02 21:45:00,
2013-04-02 16:51:00,36.1,-8.4,30.22,NW,321,11.0,0.0,14,0.00,,,0.00,404,WeatherHawk,2013-04-02 21:51:00,
2013-04-02 16:56:00,35.8,-8.7,30.22,NW,318,12.0,0.0,14,0.00,,,0.00,392,WeatherHawk,2013-04-02 21:56:00,
2013-04-02 17:02:00,36.1,-10.0,30.22,NW,323,7.0,0.0,13,0.00,,,0.00,372,WeatherHawk,2013-04-02 22:02:00,
2013-04-02 17:07:00,36.5,-9.6,30.22,NNW,327,9.0,0.0,13,0.00,,,0.00,354,WeatherHawk,2013-04-02 22:07:00,
2013-04-02 17:12:00,36.8,-2.7,30.22,NW,323,7.0,0.0,18,0.00,,,0.00,332,WeatherHawk,2013-04-02 22:12:00,
2013-04-02 17:17:00,36.6,-6.6,30.22,NW,326,7.0,0.0,15,0.00,,,0.00,339,WeatherHawk,2013-04-02 22:17:00,
2013-04-02 17:23:00,36.7,-6.6,30.22,NNW,334,11.0,0.0,15,0.00,,,0.00,311,WeatherHawk,2013-04-02 22:23:00,
2013-04-02 17:29:00,36.1,-5.7,30.23,NNW,335,8.0,0.0,16,0.00,,,0.00,287,WeatherHawk,2013-04-02 22:29:00,
2013-04-02 17:35:00,37.2,-2.4,30.22,NW,319,4.0,0.0,18,0.00,,,0.00,269,WeatherHawk,2013-04-02 22:35:00,
2013-04-02 17:40:00,37.2,-1.2,30.22,West,278,6.0,0.0,19,0.00,,,0.00,254,WeatherHawk,2013-04-02 22:40:00,
2013-04-02 17:45:00,35.7,-4.8,30.23,NNW,335,8.0,0.0,17,0.00,,,0.00,237,WeatherHawk,2013-04-02 22:45:00,
2013-04-02 17:50:00,36.3,-3.1,30.23,NNW,333,7.0,0.0,18,0.00,,,0.00,223,WeatherHawk,2013-04-02 22:50:00,
2013-04-02 17:55:00,36.2,-6.9,30.24,NW,323,7.0,0.0,15,0.00,,,0.00,209,WeatherHawk,2013-04-02 22:55:00,
2013-04-02 18:01:00,36.3,-3.1,30.24,NNE,15,4.0,0.0,18,0.00,,,0.00,186,WeatherHawk,2013-04-02 23:01:00,
2013-04-02 18:06:00,35.7,-2.4,30.23,NW,308,7.0,0.0,19,0.00,,,0.00,164,WeatherHawk,2013-04-02 23:06:00,
2013-04-02 18:11:00,35.8,-5.9,30.23,NW,326,5.0,0.0,16,0.00,,,0.00,147,WeatherHawk,2013-04-02 23:11:00,
2013-04-02 18:17:00,35.4,-5.0,30.23,NE,39,5.0,0.0,17,0.00,,,0.00,132,WeatherHawk,2013-04-02 23:17:00,
2013-04-02 18:22:00,35.5,-2.6,30.24,North,351,5.0,0.0,19,0.00,,,0.00,116,WeatherHawk,2013-04-02 23:22:00,
2013-04-02 18:28:00,35.2,-7.8,30.24,NNW,343,8.0,0.0,15,0.00,,,0.00,99,WeatherHawk,2013-04-02 23:28:00,
2013-04-02 18:33:00,35.2,-2.9,30.25,NW,323,5.0,0.0,19,0.00,,,0.00,87,WeatherHawk,2013-04-02 23:33:00,
2013-04-02 18:39:00,35.0,-7.9,30.25,NNW,330,3.0,0.0,15,0.00,,,0.00,30,WeatherHawk,2013-04-02 23:39:00,
2013-04-02 18:44:00,34.7,-5.6,30.25,NW,315,6.0,0.0,17,0.00,,,0.00,28,WeatherHawk,2013-04-02 23:44:00,
2013-04-02 18:50:00,34.6,-6.9,30.25,NW,310,6.0,0.0,16,0.00,,,0.00,24,WeatherHawk,2013-04-02 23:50:00,
2013-04-02 18:55:00,34.4,-4.7,30.25,WNW,301,7.0,-999.0,18,0.00,,,0.00,21,WeatherHawk,2013-04-02 23:55:00,
2013-04-02 19:01:00,34.3,-3.7,30.25,NNW,347,6.0,-999.0,19,0.00,,,0.00,18,WeatherHawk,2013-04-03 00:01:00,
2013-04-02 19:06:00,34.2,-6.0,30.25,NW,324,5.0,0.0,17,0.00,,,0.00,15,WeatherHawk,2013-04-03 00:06:00,
2013-04-02 19:12:00,33.7,-2.0,30.25,NW,306,5.0,0.0,21,0.00,,,0.00,11,WeatherHawk,2013-04-03 00:12:00,
2013-04-02 19:17:00,33.0,-1.7,30.25,NNW,341,2.0,0.0,22,0.00,,,0.00,6,WeatherHawk,2013-04-03 00:17:00,
2013-04-02 19:23:00,32.9,-0.8,30.24,WNW,299,2.0,0.0,23,0.00,,,0.00,3,WeatherHawk,2013-04-03 00:23:00,
2013-04-02 19:29:00,32.9,1.8,30.26,NNW,329,4.0,0.0,26,0.00,,,0.00,3,WeatherHawk,2013-04-03 00:29:00,
2013-04-02 19:34:00,32.3,1.3,30.24,WNW,291,3.0,0.0,26,0.00,,,0.00,0,WeatherHawk,2013-04-03 00:34:00,
2013-04-02 19:40:00,32.5,3.1,30.25,NW,321,3.0,-999.0,28,0.00,,,0.00,0,WeatherHawk,2013-04-03 00:40:00,
2013-04-02 19:46:00,31.7,2.3,30.25,NW,323,0.0,0.0,28,0.00,,,0.00,0,WeatherHawk,2013-04-03 00:46:00,
2013-04-02 19:51:00,32.6,3.9,30.25,NNW,329,5.0,0.0,29,0.00,,,0.00,0,WeatherHawk,2013-04-03 00:51:00,
2013-04-02 19:56:00,31.5,4.4,30.26,West,273,4.0,0.0,31,0.00,,,0.00,0,WeatherHawk,2013-04-03 00:56:00,
2013-04-02 20:02:00,32.0,4.8,30.26,NNW,345,4.0,0.0,31,0.00,,,0.00,0,WeatherHawk,2013-04-03 01:02:00,
2013-04-02 20:07:00,31.0,5.3,30.26,NW,313,2.0,0.0,33,0.00,,,0.00,2,WeatherHawk,2013-04-03 01:07:00,
2013-04-02 20:13:00,31.6,5.8,30.26,NNW,342,3.0,0.0,33,0.00,,,0.00,1,WeatherHawk,2013-04-03 01:13:00,
2013-04-02 20:18:00,30.6,6.2,30.26,NW,323,2.0,0.0,35,0.00,,,0.00,0,WeatherHawk,2013-04-03 01:18:00,
2013-04-02 20:24:00,30.4,7.3,30.27,WNW,303,0.0,0.0,37,0.00,,,0.00,0,WeatherHawk,2013-04-03 01:24:00,
2013-04-02 20:29:00,31.5,8.8,30.27,NNW,335,2.0,0.0,38,0.00,,,0.00,1,WeatherHawk,2013-04-03 01:29:00,
2013-04-02 20:35:00,31.3,8.7,30.27,NNW,332,3.0,0.0,38,0.00,,,0.00,1,WeatherHawk,2013-04-03 01:35:00,
2013-04-02 20:40:00,31.3,8.7,30.27,NW,318,3.0,0.0,38,0.00,,,0.00,0,WeatherHawk,2013-04-03 01:40:00,
2013-04-02 20:45:00,31.2,8.6,30.27,NW,324,3.0,0.0,38,0.00,,,0.00,0,WeatherHawk,2013-04-03 01:45:00,
2013-04-02 20:50:00,30.7,7.5,30.27,NW,308,3.0,0.0,37,0.00,,,0.00,0,WeatherHawk,2013-04-03 01:50:00,
2013-04-02 20:55:00,30.6,8.0,30.27,NW,326,3.0,0.0,38,0.00,,,0.00,0,WeatherHawk,2013-04-03 01:55:00,
2013-04-02 21:01:00,30.1,7.0,30.28,NW,326,1.0,0.0,37,0.00,,,0.00,0,WeatherHawk,2013-04-03 02:01:00,
2013-04-02 21:08:00,29.1,7.2,30.28,NW,314,0.0,0.0,39,0.00,,,0.00,0,WeatherHawk,2013-04-03 02:08:00,
2013-04-02 21:13:00,30.6,9.8,30.28,NW,317,3.0,0.0,41,0.00,,,0.00,0,WeatherHawk,2013-04-03 02:13:00,
2013-04-02 21:18:00,30.2,9.3,30.28,NW,325,1.0,0.0,41,0.00,,,0.00,1,WeatherHawk,2013-04-03 02:18:00,
2013-04-02 21:23:00,29.8,9.6,30.28,NW,325,3.0,0.0,42,0.00,,,0.00,1,WeatherHawk,2013-04-03 02:23:00,
2013-04-02 21:29:00,29.9,10.2,30.28,NNW,327,1.0,0.0,43,0.00,,,0.00,0,WeatherHawk,2013-04-03 02:29:00,
2013-04-02 21:34:00,29.8,10.6,30.28,NNW,339,2.0,0.0,44,0.00,,,0.00,0,WeatherHawk,2013-04-03 02:34:00,
2013-04-02 21:39:00,29.4,11.2,30.29,NW,326,2.0,0.0,46,0.00,,,0.00,0,WeatherHawk,2013-04-03 02:39:00,
2013-04-02 21:45:00,28.7,10.1,30.30,NNW,330,0.0,0.0,45,0.00,,,0.00,0,WeatherHawk,2013-04-03 02:45:00,
2013-04-02 21:50:00,29.8,11.6,30.30,NW,326,2.0,0.0,46,0.00,,,0.00,0,WeatherHawk,2013-04-03 02:50:00,
2013-04-02 21:55:00,29.6,11.4,30.29,NW,326,3.0,0.0,46,0.00,,,0.00,0,WeatherHawk,2013-04-03 02:55:00,
2013-04-02 22:01:00,29.5,11.3,30.29,NW,322,3.0,0.0,46,0.00,,,0.00,0,WeatherHawk,2013-04-03 03:01:00,
2013-04-02 22:07:00,30.0,11.3,30.29,NNW,327,5.0,0.0,45,0.00,,,0.00,0,WeatherHawk,2013-04-03 03:07:00,
2013-04-02 22:12:00,29.9,11.2,30.31,NNW,334,5.0,0.0,45,0.00,,,0.00,0,WeatherHawk,2013-04-03 03:12:00,
2013-04-02 22:20:00,29.5,10.3,30.30,NW,317,2.0,0.0,44,0.00,,,0.00,0,WeatherHawk,2013-04-03 03:20:00,
2013-04-02 22:25:00,29.3,9.6,30.30,NNW,334,2.0,0.0,43,0.00,,,0.00,0,WeatherHawk,2013-04-03 03:25:00,
2013-04-02 22:30:00,29.4,10.2,30.30,NW,315,4.0,0.0,44,0.00,,,0.00,0,WeatherHawk,2013-04-03 03:30:00,
2013-04-02 22:35:00,29.1,9.9,30.30,West,279,3.0,0.0,44,0.00,,,0.00,0,WeatherHawk,2013-04-03 03:35:00,
2013-04-02 22:42:00,29.3,9.6,30.30,NNW,345,4.0,0.0,43,0.00,,,0.00,0,WeatherHawk,2013-04-03 03:42:00,
2013-04-02 22:47:00,29.4,9.7,30.30,NW,323,3.0,0.0,43,0.00,,,0.00,0,WeatherHawk,2013-04-03 03:47:00,
2013-04-02 22:53:00,27.9,8.9,30.30,WNW,294,0.0,0.0,44,0.00,,,0.00,0,WeatherHawk,2013-04-03 03:53:00,
2013-04-02 22:58:00,29.3,10.6,30.30,NNW,327,3.0,0.0,45,0.00,,,0.00,0,WeatherHawk,2013-04-03 03:58:00,
2013-04-02 23:00:00,28.6,10.0,30.30,NW,323,2.0,0.0,45,0.00,,,0.00,0,WeatherHawk,2013-04-03 04:00:00,
2013-04-02 23:01:00,29.1,10.4,30.30,NNW,328,3.0,0.0,45,0.00,,,0.00,0,WeatherHawk,2013-04-03 04:01:00,
2013-04-02 23:02:00,29.3,10.6,30.30,NW,315,4.0,0.0,45,0.00,,,0.00,1,WeatherHawk,2013-04-03 04:02:00,
2013-04-02 23:07:00,28.7,10.5,30.31,North,350,2.0,0.0,46,0.00,,,0.00,0,WeatherHawk,2013-04-03 04:07:00,
2013-04-02 23:13:00,27.9,10.3,30.30,NNW,328,0.0,0.0,47,0.00,,,0.00,0,WeatherHawk,2013-04-03 04:13:00,
2013-04-02 23:18:00,26.6,10.0,30.31,WSW,255,0.0,0.0,49,0.00,,,0.00,1,WeatherHawk,2013-04-03 04:18:00,
2013-04-02 23:23:00,25.7,9.7,30.30,WSW,255,0.0,0.0,50,0.00,,,0.00,0,WeatherHawk,2013-04-03 04:23:00,
2013-04-02 23:28:00,26.2,11.0,30.31,WSW,255,0.0,0.0,52,0.00,,,0.00,1,WeatherHawk,2013-04-03 04:28:00,
2013-04-02 23:34:00,26.1,11.7,30.31,WSW,255,0.0,0.0,54,0.00,,,0.00,0,WeatherHawk,2013-04-03 04:34:00,
2013-04-02 23:39:00,27.2,12.8,30.31,WSW,258,0.0,0.0,54,0.00,,,0.00,0,WeatherHawk,2013-04-03 04:39:00,
2013-04-02 23:44:00,25.3,11.0,30.31,WSW,258,0.0,0.0,54,0.00,,,0.00,0,WeatherHawk,2013-04-03 04:44:00,
2013-04-02 23:49:00,26.7,13.5,30.31,WSW,258,0.0,0.0,57,0.00,,,0.00,0,WeatherHawk,2013-04-03 04:49:00,
2013-04-02 23:55:00,27.8,14.2,30.31,NW,326,3.0,0.0,56,0.00,,,0.00,0,WeatherHawk,2013-04-03 04:55:00,